TimeEDT,TemperatureF,Dew PointF,Humidity,Sea Level PressureIn,VisibilityMPH,Wind Direction,Wind SpeedMPH,Gust SpeedMPH,PrecipitationIn,Events,Conditions,WindDirDegrees,DateUTC
12:15 AM,66.2,64.4,94,30.05,10.0,Calm,Calm,-,N/A,,Clear,0,2013-05-21 04:15:00
12:35 AM,66.2,64.4,94,30.03,10.0,Calm,Calm,-,N/A,,Clear,0,2013-05-21 04:35:00
12:53 AM,66.9,64.0,90,30.01,-9999.0,Calm,Calm,-,N/A,,Unknown,0,2013-05-21 04:53:00
12:55 AM,64.4,62.6,94,30.02,7.0,Calm,Calm,-,N/A,,Clear,0,2013-05-21 04:55:00
1:35 AM,64.4,62.6,94,30.02,7.0,SE,3.5,-,N/A,,Clear,130,2013-05-21 05:35:00
1:53 AM,68.0,64.0,87,30.01,-9999.0,Calm,Calm,-,0.01,,Unknown,0,2013-05-21 05:53:00
1:55 AM,64.4,64.4,100,30.02,10.0,Calm,Calm,-,N/A,,Clear,0,2013-05-21 05:55:00
2:15 AM,64.4,62.6,94,30.01,10.0,SE,3.5,-,N/A,,Clear,130,2013-05-21 06:15:00
2:35 AM,64.4,62.6,94,30.00,10.0,Calm,Calm,-,N/A,,Clear,0,2013-05-21 06:35:00
2:53 AM,66.9,64.0,90,29.99,-9999.0,Calm,Calm,-,0.01,,Unknown,0,2013-05-21 06:53:00
2:55 AM,64.4,62.6,94,30.00,10.0,Calm,Calm,-,N/A,,Clear,0,2013-05-21 06:55:00
3:15 AM,64.4,62.6,94,30.00,10.0,Calm,Calm,-,N/A,,Clear,0,2013-05-21 07:15:00
3:35 AM,64.4,62.6,94,30.00,10.0,Calm,Calm,-,N/A,,Clear,0,2013-05-21 07:35:00
3:53 AM,66.0,63.0,90,29.99,-9999.0,ENE,3.5,-,N/A,,Unknown,70,2013-05-21 07:53:00
3:55 AM,64.4,62.6,94,30.01,5.0,Calm,Calm,-,N/A,,Clear,0,2013-05-21 07:55:00
4:15 AM,64.4,62.6,94,30.00,10.0,Calm,Calm,-,N/A,,Clear,0,2013-05-21 08:15:00
4:35 AM,64.4,62.6,94,30.00,10.0,Calm,Calm,-,N/A,,Clear,0,2013-05-21 08:35:00
4:53 AM,66.0,63.0,90,29.99,-9999.0,East,3.5,-,0.01,,Unknown,80,2013-05-21 08:53:00
4:55 AM,64.4,62.6,94,30.00,7.0,Calm,Calm,-,N/A,,Clear,0,2013-05-21 08:55:00
5:15 AM,64.4,62.6,94,30.01,10.0,Calm,Calm,-,N/A,,Clear,0,2013-05-21 09:15:00
5:35 AM,64.4,62.6,94,30.01,7.0,Calm,Calm,-,N/A,,Clear,0,2013-05-21 09:35:00
5:53 AM,66.0,62.1,87,30.00,-9999.0,Calm,Calm,-,N/A,,Unknown,0,2013-05-21 09:53:00
5:55 AM,64.4,62.6,94,30.02,7.0,Calm,Calm,-,N/A,,Clear,0,2013-05-21 09:55:00
6:15 AM,62.6,62.6,100,30.02,7.0,Calm,Calm,-,N/A,,Clear,0,2013-05-21 10:15:00
6:35 AM,62.6,62.6,100,30.03,7.0,Calm,Calm,-,N/A,,Clear,0,2013-05-21 10:35:00
6:53 AM,66.0,62.1,87,30.02,-9999.0,Calm,Calm,-,0.01,,Unknown,0,2013-05-21 10:53:00
6:55 AM,62.6,62.6,100,30.04,10.0,Calm,Calm,-,N/A,,Scattered Clouds,0,2013-05-21 10:55:00
7:15 AM,64.4,62.6,94,30.04,7.0,Calm,Calm,-,N/A,,Overcast,0,2013-05-21 11:15:00
7:35 AM,64.4,62.6,94,30.05,7.0,Calm,Calm,-,N/A,,Scattered Clouds,0,2013-05-21 11:35:00
7:53 AM,69.1,64.0,84,30.04,-9999.0,ESE,5.8,-,N/A,,Unknown,110,2013-05-21 11:53:00
7:55 AM,66.2,64.4,94,30.05,10.0,East,4.6,-,N/A,,Scattered Clouds,100,2013-05-21 11:55:00
8:15 AM,68.0,64.4,88,30.05,10.0,East,3.5,-,N/A,,Scattered Clouds,100,2013-05-21 12:15:00
8:35 AM,68.0,66.2,94,30.05,10.0,ESE,3.5,-,N/A,,Clear,110,2013-05-21 12:35:00
8:53 AM,72.0,66.9,84,30.04,-9999.0,SE,4.6,-,N/A,,Unknown,130,2013-05-21 12:53:00
8:55 AM,69.8,66.2,88,30.06,10.0,ESE,4.6,-,N/A,,Clear,120,2013-05-21 12:55:00
9:15 AM,71.6,68.0,88,30.06,10.0,East,6.9,-,N/A,,Clear,100,2013-05-21 13:15:00
9:35 AM,71.6,68.0,88,30.07,10.0,ESE,4.6,-,N/A,,Scattered Clouds,110,2013-05-21 13:35:00
9:53 AM,77.0,69.1,76,30.05,-9999.0,Variable,3.5,-,0.01,,Unknown,0,2013-05-21 13:53:00
9:55 AM,73.4,69.8,88,30.06,10.0,Calm,Calm,-,N/A,,Scattered Clouds,0,2013-05-21 13:55:00
10:15 AM,75.2,69.8,83,30.06,10.0,East,3.5,-,N/A,,Mostly Cloudy,100,2013-05-21 14:15:00
10:35 AM,77.0,68.0,74,30.05,10.0,SE,3.5,-,N/A,,Clear,140,2013-05-21 14:35:00
10:53 AM,81.0,69.1,67,30.04,-9999.0,East,3.5,-,N/A,,Unknown,100,2013-05-21 14:53:00
10:55 AM,78.8,68.0,69,30.05,10.0,Calm,Calm,-,N/A,,Clear,0,2013-05-21 14:55:00
11:15 AM,78.8,64.4,61,30.06,10.0,Calm,Calm,-,N/A,,Clear,0,2013-05-21 15:15:00
11:35 AM,78.8,64.4,61,30.05,10.0,Calm,Calm,-,N/A,,Clear,0,2013-05-21 15:35:00
11:53 AM,84.0,66.0,55,30.04,-9999.0,Variable,3.5,-,N/A,,Unknown,0,2013-05-21 15:53:00
11:55 AM,80.6,64.4,58,30.05,10.0,SSE,3.5,-,N/A,,Clear,150,2013-05-21 15:55:00
12:15 PM,80.6,64.4,58,30.05,10.0,Calm,Calm,-,N/A,,Clear,0,2013-05-21 16:15:00
12:35 PM,82.4,66.2,58,30.05,10.0,South,3.5,-,N/A,,Clear,190,2013-05-21 16:35:00
12:53 PM,86.0,66.0,51,30.02,-9999.0,Calm,Calm,-,N/A,,Unknown,0,2013-05-21 16:53:00
12:55 PM,82.4,64.4,54,30.04,10.0,Calm,Calm,-,N/A,,Clear,0,2013-05-21 16:55:00
1:15 PM,84.2,64.4,51,30.03,10.0,NE,6.9,-,N/A,,Clear,50,2013-05-21 17:15:00
1:35 PM,86.0,64.4,48,30.02,10.0,Calm,Calm,-,N/A,,Clear,0,2013-05-21 17:35:00
1:53 PM,89.1,64.9,45,30.00,-9999.0,Calm,Calm,-,N/A,,Unknown,0,2013-05-21 17:53:00
1:55 PM,86.0,62.6,45,30.01,10.0,North,3.5,-,N/A,,Clear,10,2013-05-21 17:55:00
2:15 PM,86.0,62.6,45,30.00,10.0,North,4.6,-,N/A,,Clear,350,2013-05-21 18:15:00
2:35 PM,86.0,62.6,45,29.99,10.0,NNE,5.8,-,N/A,,Scattered Clouds,30,2013-05-21 18:35:00
2:53 PM,90.0,63.0,40,29.97,-9999.0,Variable,5.8,-,N/A,,Unknown,0,2013-05-21 18:53:00
2:55 PM,87.8,60.8,40,29.98,10.0,NE,4.6,-,N/A,,Scattered Clouds,50,2013-05-21 18:55:00
3:15 PM,87.8,60.8,40,29.97,10.0,NE,4.6,-,N/A,,Clear,40,2013-05-21 19:15:00
3:35 PM,87.8,60.8,40,29.97,10.0,South,3.5,-,N/A,,Scattered Clouds,190,2013-05-21 19:35:00
3:53 PM,91.0,64.9,42,29.95,-9999.0,East,5.8,-,N/A,,Unknown,100,2013-05-21 19:53:00
3:55 PM,87.8,62.6,43,29.96,10.0,East,5.8,-,N/A,,Mostly Cloudy,100,2013-05-21 19:55:00
4:15 PM,87.8,62.6,43,29.96,10.0,Calm,Calm,-,N/A,,Mostly Cloudy,0,2013-05-21 20:15:00
4:35 PM,82.4,69.8,66,29.96,10.0,SW,8.1,-,N/A,,Mostly Cloudy,230,2013-05-21 20:35:00
4:53 PM,87.1,71.1,59,29.93,-9999.0,WSW,8.1,-,N/A,,Unknown,240,2013-05-21 20:53:00
4:55 PM,84.2,69.8,62,29.95,10.0,WSW,6.9,-,N/A,,Mostly Cloudy,250,2013-05-21 20:55:00
5:15 PM,82.4,69.8,66,29.94,10.0,WSW,8.1,-,N/A,Thunderstorm,Mostly Cloudy,240,2013-05-21 21:15:00
5:35 PM,80.6,66.2,61,29.96,10.0,ESE,12.7,29.9,N/A,,Mostly Cloudy,110,2013-05-21 21:35:00
5:49 PM,75.2,66.2,73,29.95,-9999.0,ESE,18.4,25.3,N/A,,Unknown,120,2013-05-21 21:49:00
5:53 PM,75.9,64.9,69,29.95,-9999.0,ESE,16.1,25.3,N/A,,Unknown,120,2013-05-21 21:53:00
5:55 PM,73.4,64.4,73,29.96,5.0,ESE,15.0,23.0,N/A,Thunderstorm,Unknown,110,2013-05-21 21:55:00
6:15 PM,69.8,64.4,83,29.95,10.0,SE,9.2,-,N/A,Rain-Thunderstorm,Light Thunderstorms and Rain,130,2013-05-21 22:15:00
6:35 PM,69.8,64.4,83,29.97,10.0,SSE,4.6,-,N/A,Thunderstorm,Clear,150,2013-05-21 22:35:00
6:53 PM,72.0,64.0,76,29.97,-9999.0,SSE,8.1,-,N/A,,Unknown,160,2013-05-21 22:53:00
6:55 PM,69.8,64.4,83,29.98,10.0,SSE,6.9,-,N/A,Thunderstorm,Clear,160,2013-05-21 22:55:00
7:15 PM,69.8,64.4,83,29.99,10.0,SSE,6.9,-,N/A,,Clear,150,2013-05-21 23:15:00
7:35 PM,69.8,64.4,83,29.98,10.0,SSE,6.9,-,N/A,,Clear,150,2013-05-21 23:35:00
7:53 PM,72.0,66.0,81,29.97,-9999.0,SSE,8.1,-,N/A,,Unknown,160,2013-05-21 23:53:00
7:55 PM,69.8,64.4,83,29.98,10.0,SSE,6.9,-,N/A,,Clear,150,2013-05-21 23:55:00
8:15 PM,69.8,64.4,83,29.98,10.0,SE,4.6,-,N/A,,Clear,130,2013-05-22 00:15:00
8:35 PM,69.8,66.2,88,29.97,10.0,East,5.8,-,N/A,,Clear,100,2013-05-22 00:35:00
8:53 PM,71.1,66.9,87,29.96,-9999.0,ESE,5.8,-,0.01,,Unknown,120,2013-05-22 00:53:00
8:55 PM,69.8,66.2,88,29.97,10.0,ESE,5.8,-,N/A,,Clear,110,2013-05-22 00:55:00
9:15 PM,69.8,66.2,88,29.98,10.0,ESE,3.5,-,N/A,,Clear,110,2013-05-22 01:15:00
9:35 PM,69.8,66.2,88,29.99,10.0,East,3.5,-,N/A,,Clear,90,2013-05-22 01:35:00
9:53 PM,71.1,66.0,84,29.99,-9999.0,Calm,Calm,-,N/A,,Unknown,0,2013-05-22 01:53:00
9:55 PM,69.8,66.2,88,30.00,10.0,East,3.5,-,N/A,,Clear,80,2013-05-22 01:55:00
10:15 PM,68.0,66.2,94,30.00,7.0,ESE,3.5,-,N/A,,Clear,110,2013-05-22 02:15:00
10:35 PM,68.0,66.2,94,30.01,10.0,East,3.5,-,N/A,,Clear,90,2013-05-22 02:35:00
10:53 PM,70.0,66.0,87,30.00,-9999.0,East,3.5,-,N/A,,Unknown,100,2013-05-22 02:53:00
10:55 PM,68.0,64.4,88,30.01,10.0,Calm,Calm,-,N/A,,Clear,0,2013-05-22 02:55:00
11:15 PM,68.0,64.4,88,30.00,10.0,Calm,Calm,-,N/A,,Clear,0,2013-05-22 03:15:00
11:35 PM,68.0,64.4,88,30.00,10.0,ESE,6.9,-,N/A,,Clear,110,2013-05-22 03:35:00
11:53 PM,70.0,66.0,87,29.99,-9999.0,ESE,3.5,-,N/A,,Unknown,120,2013-05-22 03:53:00
11:55 PM,68.0,64.4,88,30.00,10.0,Calm,Calm,-,N/A,,Clear,0,2013-05-22 03:55:00